Location: Unspecified
(0.0000°N, 0.0000°E)
Time: 02:47:33
(UTC+00:00)

STRAND 1 - Visible Passes

Search period start: 20 March 2019 00:00
Search period end: 30 March 2019 00:00
Orbit: 768 x 781 km, 98.5° (Epoch: 18 March)

Date Brightness Start Highest point End Pass type
(mag) Time Alt. Az. Time Alt. Az. Time Alt. Az.
20 Mar ? 19:19:56 10° N 19:24:59 72° WNW 19:30:04 10° SSW visible
21 Mar ? 18:46:19 10° NNE 18:51:06 43° ESE 18:55:55 10° S visible
21 Mar ? 20:28:58 10° WNW 20:30:00 11° WNW 20:31:02 10° W visible
22 Mar ? 19:51:48 10° NNW 19:56:08 29° WNW 20:00:30 10° SW visible
23 Mar ? 19:17:12 10° N 19:22:16 77° WNW 19:27:22 10° SSW visible
24 Mar ? 18:43:40 10° NE 18:48:23 39° ESE 18:53:08 10° S visible
24 Mar ? 20:25:34 10° WNW 20:27:17 12° WNW 20:29:00 10° W visible
25 Mar ? 19:48:59 10° NNW 19:53:25 31° WNW 19:57:54 10° SW visible
26 Mar ? 19:14:27 10° N 19:19:32 84° WNW 19:24:39 10° SSW visible
27 Mar ? 18:41:01 10° NE 18:45:40 36° ESE 18:50:19 10° SSE visible
27 Mar ? 20:22:24 10° NW 20:24:34 13° WNW 20:26:44 10° WSW visible
28 Mar ? 19:46:10 10° NNW 19:50:42 34° WNW 19:55:16 10° SW visible
29 Mar ? 19:11:44 10° NNE 19:16:49 90° W 19:21:55 10° SSW visible
